User: anonymous   Login
Location: Wien
(48.2082°N, 16.3738°E)
Time: 23:19:18
(UTC+02:00)
Language:

SEEDS - Orbit

View from above orbital plane
View from above orbital plane
View from above satellite
View from above satellite

Ground track
Ground track

The orbit data is extracted from the following two-line orbital elements,

1 32791U 08021J   24115.48346007  .00016997  00000-0  12816-2 0  9990
2 32791  97.6839  87.0203 0007118 117.9470 242.2476 15.02501910868533
Epoch (UTC): 24 April 2024 11:36:10
Eccentricity: 0.0007118
inclination: 97.6839°
perigee height: 554 km
apogee height: 564 km
right ascension of ascending node: 87.0203°
argument of perigee: 117.9470°
revolutions per day: 15.02501910
mean anomaly at epoch: 242.2476°
orbit number at epoch: 86853

The dashed part of the orbit path shows where the satellite is in the earth's shadow,  

DLR